RADUGA 11 1 13669U 82113A 21016.27036618 -.00000145 00000-0 00000-0 0 9994 2 13669 13.0301 326.9997 0036632 242.5247 130.8739 0.97709161102213 SL-12 R/B(2) 1 13954U 82113F 21016.04701941 -.00000141 00000-0 00000-0 0 9990 2 13954 13.1192 326.6435 0019158 238.4609 301.4153 0.97571585100584